Syracuse, NY

1:47 PM EDT on May 21, 2018 (GMT -0400)
Syracuse Hancock International

Weather History for KSYR - February, 2012

Change the Weather History Date:

Friday, February 17, 2012

  Actual Average Record
Temperature  
Mean Temperature 38 °F 26 °F  
Max Temperature 45 °F 35 °F 60 °F (1981)
Min Temperature 31 °F 18 °F -17 °F (1979)
Degree Days  
Heating Degree Days 27 39  
Month to date heating degree days 559 682  
Since 1 July heating degree days 3484 4418  
Cooling Degree Days 0 0  
Month to date cooling degree days 0 0  
Year to date cooling degree days 0 0  
Moisture  
Dew Point 30 °F    
Average Humidity 66    
Maximum Humidity 89    
Minimum Humidity 43    
Precipitation  
Precipitation 0.04 in 0.07 in 1.31 in (1954)
Month to date precipitation 0.60 1.21  
Year to date precipitation 4.48 3.71  
Snow  
Snow 0.40 in 0.90 in 7.80 in (1953)
Month to date snowfall 4.8 15.8  
Since 1 July snowfall 36.6 92.4  
Snow Depth 0.00 in    
Sea Level Pressure  
Sea Level Pressure 29.98 in    
Wind  
Wind Speed 12 mph (WNW)    
Max Wind Speed 22 mph    
Max Gust Speed 29 mph    
Visibility 8 miles    
Events Snow    
T = Trace of Precipitation, MM = Missing Value Source: NWS Daily Summary

Daily Weather History Graph

Daily Weather History Graph

Search for Another Location

Airport or City:

Astronomy

Feb. 17, 2012 Rise Set
Actual Time 7:00 AM EST 5:37 PM EST
Civil Twilight 6:30 AM EST 6:06 PM EST
Nautical Twilight 5:57 AM EST 6:39 PM EST
Astronomical Twilight 5:24 AM EST 7:12 PM EST
Moon 3:54 AM EST (2/17) 1:23 PM EST (2/17)
Length of Visible Light 11h 35m
Length of Day
10h 37m
Waning Crescent, 19% of the Moon is Illuminated
Feb 17
Waning Crescent
Feb 21
New
Feb 29
First Quarter
Mar 8
Full
Mar 14
Last Quarter

Hourly Weather History & Observations

Time (EST) Temp. Windchill Dew Point Humidity Pressure Visibility Wind Dir Wind Speed Gust Speed Precip Events Conditions
12:42 AM 41.0 °F 33.9 °F 37.4 °F 87% 29.91 in 10.0 mi West 12.7 mph - 0.00 in   Overcast
12:54 AM 41.0 °F 34.7 °F 36.0 °F 82% 29.91 in 10.0 mi West 10.4 mph - 0.00 in   Overcast
1:28 AM 39.2 °F 31.2 °F 35.6 °F 87% 29.92 in 10.0 mi West 13.8 mph 19.6 mph N/A   Overcast
1:54 AM 41.0 °F 33.5 °F 35.1 °F 79% 29.94 in 10.0 mi West 13.8 mph - N/A   Overcast
1:58 AM 39.2 °F 31.6 °F 35.6 °F 87% 29.94 in 10.0 mi West 12.7 mph - N/A   Overcast
2:26 AM 39.2 °F 31.2 °F 33.8 °F 81% 29.94 in 10.0 mi West 13.8 mph - N/A   Overcast
2:45 AM 39.2 °F 30.8 °F 33.8 °F 81% 29.95 in 10.0 mi West 15.0 mph - N/A   Overcast
2:54 AM 39.9 °F 32.1 °F 34.0 °F 79% 29.94 in 10.0 mi West 13.8 mph - N/A   Overcast
3:54 AM 39.0 °F 31.4 °F 33.1 °F 79% 29.95 in 10.0 mi West 12.7 mph - N/A   Overcast
4:27 AM 39.2 °F 33.0 °F 33.8 °F 81% 29.95 in 10.0 mi West 9.2 mph - N/A   Overcast
4:47 AM 37.4 °F 29.3 °F 32.0 °F 81% 29.96 in 10.0 mi West 12.7 mph - N/A   Overcast
4:54 AM 39.0 °F 31.4 °F 32.0 °F 76% 29.96 in 10.0 mi West 12.7 mph - N/A   Overcast
5:54 AM 37.0 °F 30.4 °F 30.9 °F 79% 29.98 in 10.0 mi West 9.2 mph - N/A   Overcast
6:54 AM 36.0 °F 27.5 °F 28.9 °F 76% 30.01 in 10.0 mi WNW 12.7 mph - N/A   Scattered Clouds
7:54 AM 36.0 °F 29.0 °F 28.0 °F 73% 30.03 in 10.0 mi WNW 9.2 mph - N/A   Scattered Clouds
8:54 AM 37.9 °F 30.0 °F 28.9 °F 70% 30.02 in 10.0 mi West 12.7 mph - N/A   Scattered Clouds
9:54 AM 41.0 °F 32.8 °F 28.0 °F 60% 30.01 in 10.0 mi WNW 16.1 mph - N/A   Scattered Clouds
10:54 AM 42.1 °F 34.2 °F 26.1 °F 53% 30.00 in 10.0 mi West 16.1 mph - N/A   Scattered Clouds
11:54 AM 43.0 °F 36.0 °F 21.9 °F 43% 29.98 in 10.0 mi NW 13.8 mph 21.9 mph N/A   Mostly Cloudy
12:54 PM 42.1 °F 35.2 °F 23.0 °F 47% 29.96 in 10.0 mi WNW 12.7 mph 24.2 mph N/A   Overcast
1:54 PM 41.0 °F 33.9 °F 24.1 °F 51% 29.96 in 10.0 mi West 12.7 mph - N/A   Overcast
2:24 PM 37.4 °F 31.4 °F 28.4 °F 70% 29.96 in 8.0 mi WNW 8.1 mph - 0.00 in Snow Light Snow
2:35 PM 41.0 °F 34.3 °F 26.6 °F 57% 29.96 in 9.0 mi NW 11.5 mph - 0.00 in   Overcast
2:54 PM 39.9 °F 33.4 °F 26.1 °F 58% 29.95 in 10.0 mi NW 10.4 mph - 0.00 in   Overcast
3:54 PM 41.0 °F 34.3 °F 28.0 °F 60% 29.96 in 10.0 mi NNW 11.5 mph - 0.00 in   Unknown
4:14 PM 35.6 °F 27.5 °F 30.2 °F 81% 29.96 in 9.0 mi North 11.5 mph 19.6 mph 0.00 in Snow Light Snow
4:28 PM 35.6 °F 25.9 °F 30.2 °F 81% 29.98 in 2.0 mi NNW 16.1 mph 21.9 mph 0.00 in Snow Light Snow
4:41 PM 33.8 °F 25.3 °F 30.2 °F 87% 29.98 in 3.0 mi NNW 11.5 mph - 0.01 in Snow Light Snow
4:54 PM 34.0 °F 25.5 °F 30.0 °F 85% 29.99 in 8.0 mi NNW 11.5 mph - 0.02 in Snow Light Snow
5:07 PM 33.8 °F 25.8 °F 30.2 °F 87% 29.99 in 1.5 mi WNW 10.4 mph 19.6 mph 0.00 in Snow Light Snow
5:14 PM 33.8 °F 25.8 °F 30.2 °F 87% 29.99 in 3.0 mi WNW 10.4 mph - 0.00 in Snow Light Snow
5:54 PM 34.0 °F 26.6 °F 30.0 °F 85% 30.01 in 1.0 mi NW 9.2 mph - 0.00 in Snow Light Snow
6:31 PM 33.8 °F 25.8 °F 30.2 °F 87% 30.01 in 5.0 mi West 10.4 mph - 0.01 in Snow Light Snow
6:54 PM 33.1 °F 24.4 °F 30.0 °F 89% 30.01 in 3.0 mi West 11.5 mph - 0.01 in Snow Light Snow
7:28 PM 33.8 °F 23.5 °F 28.4 °F 81% 30.00 in 9.0 mi West 16.1 mph - 0.00 in Snow Light Snow
7:54 PM 33.1 °F 23.9 °F 28.9 °F 85% 30.01 in 9.0 mi West 12.7 mph - 0.00 in Snow Light Snow
8:54 PM 33.1 °F 24.9 °F 28.9 °F 85% 30.02 in 9.0 mi West 10.4 mph - 0.00 in Snow Light Snow
9:54 PM 33.1 °F 24.9 °F 28.0 °F 82% 30.04 in 9.0 mi WNW 10.4 mph - 0.00 in Snow Light Snow
10:54 PM 32.0 °F 22.1 °F 28.0 °F 85% 30.02 in 4.0 mi West 13.8 mph - 0.00 in Snow Light Snow
11:54 PM 32.0 °F 23.0 °F 28.0 °F 85% 30.02 in 10.0 mi West 11.5 mph - 0.01 in Snow Light Snow